Regional Weather Roundup
Issued by NWS Cleveland, OH

Home | Current Version | Previous Version | Graphics & Text | Print | Product List | Glossary On
Versions: 1 2 3 4 5 6 7 8 9 10 11 12 13 14 15 16 17 18 19 20 21 22 23 24 25 26 27 28 29 30 31 32 33 34 35 36 37 38 39 40 41 42 43 44 45 46 47 48 49 50
000
ASUS41 KCLE 201512
RWRCLE
OHIO REGIONAL WEATHER ROUNDUP
NATIONAL WEATHER SERVICE WILMINGTON, OH
1100 AM EDT WED SEP 20 2017

NOTE: "FAIR" INDICATES FEW OR NO CLOUDS BELOW 12,000 FEET WITH NO
SIGNIFICANT WEATHER AND/OR OBSTRUCTIONS TO VISIBILITY.

OHZ001>008-015>018-024>027-034-035-043-044-201600-
   NORTHWEST OHIO

CITY           SKY/WX    TMP DP  RH WIND       PRES   REMARKS
DEFIANCE       CLOUDY    68  66  93 SE5       30.02S FOG
FINDLAY        FAIR      77  68  73 S5        30.02S
TOLEDO EXPRESS CLOUDY    67  32  27 CALM      30.01F FOG
TOLEDO EXEC    PTSUNNY   75  69  81 SE3       30.02S
LIMA           FAIR      74  70  87 S5        30.04S
$$

OHZ009>014-019>023-028>033-038-089-201600-
   NORTHEAST OHIO

CITY           SKY/WX    TMP DP  RH WIND       PRES   REMARKS
CLE-HOPKINS    CLOUDY    80  67  64 W3        30.06S
CLE-LAKEFRONT  PTSUNNY   75  65  70 CALM      30.03S
CUY CO. ARPT   PTSUNNY   77  66  69 NW6       30.05F
LORAIN-ELYRIA  CLOUDY    73  64  73 SW3       30.05S
ASHTABULA      FAIR      76  67  73 CALM      30.05F
AKRON-CANTON   PTSUNNY   78  64  61 NW6       30.06S
WOOSTER        PTSUNNY   73  66  78 W5        30.07S
MANSFIELD      CLOUDY    72  66  81 S3        30.07S
YOUNGSTOWN     CLOUDY    77  66  68 W3        30.06S
$$

OHZ042-051>053-060>062-070>072-077>081-201600-
  SOUTHWEST OHIO

CITY           SKY/WX    TMP DP  RH WIND       PRES   REMARKS
CINC-COVINGTON FAIR      75  73  93 VRB3      30.05S
CINC-LUNKEN    FAIR      75  71  87 S6        30.05S
HAMILTON       FAIR      78  71  79 CALM      30.06R
DAYTON         FAIR      74  69  85 SW6       30.06S
WRIGHT-PAT AFB MOSUNNY   73  71  96 CALM      30.05S
DAYTON GENERAL FAIR      74  69  85 S6        30.05S
WILMINGTON     FAIR      75  69  81 S3        30.06S
$$

OHZ036-037-039>041-045>050-054>059-063>069-073>076-082>088-201600-
  CENTRAL AND SOUTHEAST OHIO

CITY           SKY/WX    TMP DP  RH WIND       PRES   REMARKS
COLUMBUS       FAIR      76  69  79 W3        30.04F
OSU AIRPORT    FAIR      76  69  79 CALM      30.05S
BOLTON FIELD   PTSUNNY   75  68  78 W7        30.06S
RICKENBACK AFB FAIR      74  68  81 CALM      30.04F
NEWARK         PTSUNNY   75  66  73 CALM      30.05F
MARION         FAIR      75  67  76 S7        30.05S
LANCASTER      FAIR      76  68  76 CALM      30.05F
ZANESVILLE     LGT RAIN  71  66  84 W5        30.06S
NEW PHILLY     PTSUNNY   76  66  71 CALM      30.06F
$$



USA.gov is the U.S. government's official web portal to all federal, state and local government web resources and services.